Weather History for Talkeetna, AK

Change the Weather History Date:

Friday, August 23, 2013

  Actual Average Record
Temperature  
Mean Temperature 56 °F -  
Max Temperature 60 °F 64 °F 80 °F (1977)
Min Temperature 50 °F 43 °F 25 °F (1974)
Degree Days  
Heating Degree Days 9    
Growing Degree Days 6 (Base 50)    
Moisture  
Dew Point 52 °F    
Average Humidity 93    
Maximum Humidity 100    
Minimum Humidity 81    
Precipitation  
Precipitation 0.04 in - - ()
Sea Level Pressure  
Sea Level Pressure 29.60 in    
Wind  
Wind Speed 7 mph (SSW)    
Max Wind Speed 10 mph    
Max Gust Speed -    
Visibility 7 miles    
Events Rain    
Averages and records for this station are not official NWS values.
T = Trace of Precipitation, MM = Missing Value Source: NWS Daily Summary

Daily Weather History Graph

Daily Weather History Graph

Search for Another Location

Airport:

Trip Planner

Search our weather history database for the weather conditions in past years. The results will help you decide how hot, cold, wet, or windy it might be!

Date:

Astronomy

Aug. 23, 2013 Rise Set
Actual Time 6:25 AM AKDT 9:37 PM AKDT
Civil Twilight 5:32 AM AKDT 10:30 PM AKDT
Nautical Twilight 4:15 AM AKDT 11:45 PM AKDT
Astronomical Twilight 2:35 AM AKDT 1:30 AM AKDT
Moon 9:38 PM AKDT (8/23) 10:48 AM AKDT (8/23)
Length of Visible Light 16h 57m
Length of Day
15h 12m
Waning Gibbous, 90% of the Moon is Illuminated
Aug 23
Waning Gibbous
Aug 28
Last Quarter
Sep 5
New
Sep 12
First Quarter
Sep 19
Full

Hourly Weather History & Observations

Time (AKDT) Temp. Dew Point Humidity Pressure Visibility Wind Dir Wind Speed Gust Speed Precip Events Conditions
12:08 AM 51.8 °F 51.8 °F 100% 29.66 in 2.5 mi SSW 5.8 mph - 0.00 in Rain Light Rain
12:29 AM 51.8 °F 51.8 °F 100% 29.66 in 2.5 mi SSW 8.1 mph - 0.02 in Rain Light Rain
12:37 AM 51.8 °F 51.8 °F 100% 29.66 in 3.0 mi SSW 8.1 mph - 0.02 in Rain Light Rain
12:53 AM 52.0 °F 51.1 °F 97% 29.67 in 3.0 mi SSW 5.8 mph - 0.02 in Rain Light Rain
1:11 AM 51.8 °F 51.8 °F 100% 29.66 in 6.0 mi SSW 6.9 mph - 0.01 in Rain Light Rain
1:38 AM 51.8 °F 51.8 °F 100% 29.65 in 10.0 mi South 6.9 mph - 0.01 in   Overcast
1:48 AM 51.8 °F 51.8 °F 100% 29.65 in 9.0 mi South 8.1 mph - 0.01 in   Overcast
1:53 AM 52.0 °F 51.1 °F 97% 29.66 in 8.0 mi South 9.2 mph - 0.01 in   Overcast
2:21 AM 51.8 °F 51.8 °F 100% 29.65 in 3.0 mi South 10.4 mph - N/A   Overcast
2:37 AM 51.8 °F 51.8 °F 100% 29.64 in 2.5 mi SSW 8.1 mph - 0.00 in Rain Light Rain
2:44 AM 51.8 °F 51.8 °F 100% 29.64 in 3.0 mi SSW 8.1 mph - 0.00 in Rain Light Rain
2:53 AM 52.0 °F 51.1 °F 97% 29.65 in 9.0 mi SSW 5.8 mph - 0.00 in   Overcast
3:28 AM 51.8 °F 51.8 °F 100% 29.64 in 4.0 mi SSW 8.1 mph - 0.01 in Rain Light Rain
3:53 AM 52.0 °F 51.1 °F 97% 29.64 in 5.0 mi SSW 8.1 mph - 0.04 in Rain Light Rain
4:00 AM 51.8 °F 51.8 °F 100% 29.63 in 6.0 mi SSW 8.1 mph - 0.01 in Rain Light Rain
4:12 AM 51.8 °F 51.8 °F 100% 29.63 in 4.0 mi SSW 6.9 mph - 0.03 in Rain Rain
4:28 AM 51.8 °F 51.8 °F 100% 29.62 in 7.0 mi South 9.2 mph - 0.04 in Rain Light Rain
4:53 AM 52.0 °F 51.1 °F 97% 29.63 in 10.0 mi South 6.9 mph - 0.04 in   Overcast
5:53 AM 52.0 °F 51.1 °F 97% 29.62 in 9.0 mi South 9.2 mph - N/A   Overcast
6:53 AM 53.1 °F 51.1 °F 93% 29.61 in 5.0 mi SSW 10.4 mph - N/A   Overcast
7:53 AM 53.1 °F 52.0 °F 96% 29.61 in 7.0 mi SSW 6.9 mph - N/A   Overcast
8:10 AM 51.8 °F 51.8 °F 100% 29.60 in 2.0 mi SSW 9.2 mph - N/A   Overcast
8:33 AM 51.8 °F 51.8 °F 100% 29.60 in 1.8 mi SSW 6.9 mph - N/A   Overcast
8:53 AM 52.0 °F 51.1 °F 97% 29.60 in 2.5 mi SW 3.5 mph - 0.00 in Rain Light Rain
9:00 AM 53.6 °F 51.8 °F 94% 29.60 in 10.0 mi SW 3.5 mph - 0.00 in   Overcast
9:26 AM 53.6 °F 51.8 °F 94% 29.59 in 2.5 mi South 8.1 mph - 0.00 in   Overcast
9:36 AM 53.6 °F 51.8 °F 94% 29.59 in 1.2 mi SSW 8.1 mph - 0.00 in Rain Light Rain
9:46 AM 53.6 °F 51.8 °F 94% 29.59 in 1.5 mi SSW 5.8 mph - 0.00 in Rain Light Rain
9:53 AM 53.1 °F 52.0 °F 96% 29.60 in 2.5 mi SSW 8.1 mph - 0.00 in   Overcast
10:08 AM 53.6 °F 51.8 °F 94% 29.59 in 5.0 mi SSW 9.2 mph - N/A   Overcast
10:31 AM 53.6 °F 51.8 °F 94% 29.59 in 4.0 mi South 9.2 mph - 0.00 in Rain Light Rain
10:53 AM 54.0 °F 53.1 °F 97% 29.60 in 8.0 mi SSW 6.9 mph - 0.00 in Rain Light Rain
11:17 AM 53.6 °F 53.6 °F 100% 29.59 in 7.0 mi SSW 5.8 mph - 0.00 in   Overcast
11:53 AM 55.9 °F 53.1 °F 90% 29.59 in 9.0 mi South 10.4 mph - 0.00 in   Overcast
12:04 PM 55.4 °F 53.6 °F 94% 29.58 in 10.0 mi South 10.4 mph - 0.00 in Rain Light Rain
12:18 PM 57.2 °F 53.6 °F 88% 29.58 in 10.0 mi South 9.2 mph - 0.00 in   Overcast
12:26 PM 57.2 °F 53.6 °F 88% 29.58 in 10.0 mi SSW 9.2 mph - 0.00 in   Overcast
12:43 PM 55.4 °F 51.8 °F 88% 29.58 in 10.0 mi SSW 8.1 mph - 0.00 in   Overcast
12:53 PM 57.0 °F 52.0 °F 83% 29.58 in 10.0 mi SSW 9.2 mph - 0.00 in   Overcast
1:14 PM 57.2 °F 53.6 °F 88% 29.57 in 10.0 mi South 8.1 mph - 0.01 in Rain Light Rain
1:30 PM 57.2 °F 51.8 °F 82% 29.57 in 10.0 mi SSW 8.1 mph - 0.01 in   Overcast
1:45 PM 57.2 °F 53.6 °F 88% 29.57 in 10.0 mi SSW 6.9 mph - 0.01 in   Overcast
1:53 PM 57.9 °F 53.1 °F 84% 29.58 in 10.0 mi Variable 5.8 mph - 0.01 in   Overcast
2:53 PM 59.0 °F 53.1 °F 81% 29.57 in 10.0 mi SSW 3.5 mph - 0.03 in   Overcast
3:53 PM 59.0 °F 55.0 °F 87% 29.56 in 10.0 mi North 5.8 mph - 0.00 in Rain Light Rain
4:01 PM 57.2 °F 53.6 °F 88% 29.56 in 5.0 mi North 3.5 mph - 0.00 in Rain Light Rain
4:14 PM 57.2 °F 51.8 °F 82% 29.55 in 10.0 mi East 3.5 mph - 0.01 in   Mostly Cloudy
4:53 PM 57.9 °F 54.0 °F 87% 29.55 in 10.0 mi ENE 3.5 mph - 0.01 in   Mostly Cloudy
5:40 PM 57.2 °F 53.6 °F 88% 29.54 in 10.0 mi ESE 3.5 mph - 0.00 in Rain Light Rain
5:53 PM 57.9 °F 54.0 °F 87% 29.55 in 10.0 mi Calm Calm - 0.00 in   Overcast
6:53 PM 59.0 °F 54.0 °F 83% 29.55 in 10.0 mi Calm Calm - N/A   Mostly Cloudy
7:53 PM 59.0 °F 54.0 °F 83% 29.55 in 10.0 mi Calm Calm - N/A   Mostly Cloudy
8:53 PM 59.0 °F 54.0 °F 83% 29.56 in 10.0 mi Calm Calm - N/A   Clear
9:53 PM 55.0 °F 54.0 °F 96% 29.57 in 10.0 mi Calm Calm - N/A   Clear
10:53 PM 52.0 °F 51.1 °F 97% 29.58 in 9.0 mi Calm Calm - N/A   Mostly Cloudy
11:53 PM 50.0 °F 48.9 °F 96% 29.59 in 10.0 mi Calm Calm - N/A   Clear